Details for All Nippon Airways at RJAA




Go Back


Latest METAR
Local Time

RJAA 181300Z 34005KT 300V030 9999 FEW020 SCT025 BKN110 23/21 Q1013 NOSIG RMK 1CU020 3CU025 7AC110 A2991
18/09/2018, 22:17:25

Description
Results
All Nippon Airways Logo
Number of Pilots based at RJAA
0 Pilots Based here
Number of All Nippon Airways Flights Departed from RJAA
2 Flights Departed
Number of All Nippon Airways Flights Arrived at RJAA
2 Flights Arrived
Number of All Nippon Airways Schedules Departing from RJAA
48 Schedules
Number of All Nippon Airways Schedules Arriving at RJAA
49 Schedules
Number of All Nippon Airways Schedules Departing from RJAA availible today
47 Schedules Today
Number of All Nippon Airways Schedules Arriving at RJAA availible today
46 Schedules Today
Average Landing Rate at RJAA
-101 fpm
All Nippon Airways Average Landing Rate at RJAA
-112 fpm
Total Fuel Purchased at RJAA by All Nippon Airways
6,860.59 kgs / 15,124.86 lbs

Pilots Based at RJAA


Pilot ID
Pilot Name
Pilot Rank
No. of Flights
No. of Flying Hours
There are no pilots assigned to this hub!   Will you be the first?
Content